Location: Blackie
(50.6050°N, 113.6230°W)
Time: 00:55:40
(UTC+00:00)

N. Korean satellite - Pass Details

Date: 09 December 2021
Orbit: 446 x 492 km, 97.3° (Epoch: 16 January)

Event Time Altitude Azimuth Distance (km) Brightness Sun altitude
Rises 11:45:10 0° 32° (NNE) 2,462 10.6 -33.5°
Reaches altitude 10° 11:48:18 10° 64° (ENE) 1,582 9.9 -33.0°
Maximum altitude 11:49:42 12° 89° (E) 1,455 9.8 -32.8°
Drops below altitude 10° 11:51:06 10° 114° (ESE) 1,577 9.8 -32.5°
Sets 11:54:09 0° 146° (SE) 2,424 10.5 -32.0°
